| time (UTC) | temp F | wind direction | speed knots | gust knots | rain 1hr in | rain 24hr in | rain mn in | humidity % | barometer mb |
| 20260505192037 | 66 | 90 | 1.7 | 4.3 | 0.00 | 0.00 | 0.00 | 53 | 1005.1 |
| 20260505191016 | 66 | 90 | 3.5 | 9.6 | 0.00 | 0.00 | 0.00 | 52 | 1005.1 |
| 20260505190036 | 67 | 90 | 3.5 | 8.7 | 0.00 | 0.00 | 0.00 | 51 | 1005.1 |
| 20260505185016 | 67 | 90 | 4.3 | 10.4 | 0.00 | 0.00 | 0.00 | 50 | 1005.0 |
| 20260505184016 | 67 | 90 | 3.5 | 7.0 | 0.00 | 0.00 | 0.00 | 49 | 1005.0 |
| 20260505183016 | 68 | 90 | 4.3 | 9.6 | 0.00 | 0.00 | 0.00 | 48 | 1005.0 |
| 20260505182016 | 68 | 90 | 2.6 | 7.0 | 0.00 | 0.00 | 0.00 | 47 | 1004.7 |
| 20260505181016 | 68 | 90 | 3.5 | 7.0 | 0.00 | 0.00 | 0.00 | 47 | 1004.8 |
| 20260505180016 | 68 | 113 | 4.3 | 8.7 | 0.00 | 0.00 | 0.00 | 46 | 1004.6 |
| 20260505175016 | 69 | 90 | 3.5 | 7.8 | 0.00 | 0.00 | 0.00 | 47 | 1004.7 |
| 20260505174016 | 69 | 90 | 3.5 | 9.6 | 0.00 | 0.00 | 0.00 | 47 | 1004.7 |
| 20260505173016 | 70 | 113 | 3.5 | 7.8 | 0.00 | 0.00 | 0.00 | 46 | 1005.1 |
| 20260505172016 | 70 | 113 | 3.5 | 13.0 | 0.00 | 0.00 | 0.00 | 46 | 1004.7 |
| 20260505171016 | 71 | 90 | 2.6 | 7.0 | 0.00 | 0.00 | 0.00 | 45 | 1004.7 |
| 20260505170016 | 71 | 90 | 6.1 | 14.8 | 0.00 | 0.00 | 0.00 | 44 | 1004.7 |
| 20260505165016 | 72 | 90 | 3.5 | 9.6 | 0.00 | 0.00 | 0.00 | 43 | 1004.6 |
| 20260505164016 | 73 | 90 | 4.3 | 9.6 | 0.00 | 0.00 | 0.00 | 42 | 1005.0 |
| 20260505163016 | 74 | 90 | 3.5 | 8.7 | 0.00 | 0.00 | 0.00 | 41 | 1005.0 |
| 20260505162016 | 75 | 90 | 1.7 | 7.8 | 0.00 | 0.00 | 0.00 | 41 | 1004.8 |
| 20260505161016 | 76 | 113 | 3.5 | 10.4 | 0.00 | 0.00 | 0.00 | 38 | 1004.8 |
| 20260505153016 | 80 | 90 | 2.6 | 7.8 | 0.00 | 0.00 | 0.00 | 35 | 1004.8 |
| 20260505152016 | 80 | 113 | 2.6 | 7.8 | 0.00 | 0.00 | 0.00 | 35 | 1004.7 |
| 20260505151016 | 80 | 113 | 4.3 | 12.2 | 0.00 | 0.00 | 0.00 | 36 | 1004.7 |
| 20260505125016 | 80 | 90 | 3.5 | 8.7 | 0.00 | 0.00 | 0.00 | 34 | 1006.6 |
| 20260505124017 | 79 | 90 | 3.5 | 7.8 | 0.00 | 0.00 | 0.00 | 32 | 1006.7 |
| 20260505123016 | 81 | 90 | 3.5 | 10.4 | 0.00 | 0.00 | 0.00 | 30 | 1006.8 |
| 20260505122016 | 79 | 90 | 3.5 | 9.6 | 0.00 | 0.00 | 0.00 | 35 | 1007.0 |
| 20260505121016 | 79 | 90 | 3.5 | 8.7 | 0.00 | 0.00 | 0.00 | 32 | 1006.9 |
| 20260505120016 | 80 | 113 | 2.6 | 5.2 | 0.00 | 0.00 | 0.00 | 34 | 1006.8 |
| 20260505115016 | 79 | 90 | 3.5 | 8.7 | 0.00 | 0.00 | 0.00 | 34 | 1007.1 |
| 20260505114016 | 79 | 90 | 4.3 | 8.7 | 0.00 | 0.00 | 0.00 | 34 | 1007.1 |
| 20260505113036 | 78 | 90 | 3.5 | 12.2 | 0.00 | 0.00 | 0.00 | 36 | 1007.4 |
| 20260505112016 | 78 | 90 | 3.5 | 9.6 | 0.00 | 0.00 | 0.00 | 36 | 1007.5 |
| 20260505111016 | 78 | 90 | 3.5 | 7.8 | 0.00 | 0.00 | 0.00 | 35 | 1007.5 |
| 20260505102016 | 75 | 90 | 1.7 | 5.2 | 0.00 | 0.00 | 0.00 | 42 | 1008.1 |
| 20260505101057 | 74 | 113 | 2.6 | 6.1 | 0.00 | 0.00 | 0.00 | 42 | 1008.3 |
| 20260505100016 | 75 | 90 | 2.6 | 7.8 | 0.00 | 0.00 | 0.00 | 40 | 1008.4 |
| 20260505095016 | 75 | 90 | 1.7 | 6.1 | 0.00 | 0.00 | 0.00 | 42 | 1008.4 |
| 20260505094016 | 75 | 90 | 1.7 | 4.3 | 0.00 | 0.00 | 0.00 | 42 | 1008.4 |
| 20260505093036 | 73 | 90 | 2.6 | 6.1 | 0.00 | 0.00 | 0.00 | 43 | 1008.7 |
| 20260505092016 | 73 | 90 | 2.6 | 5.2 | 0.00 | 0.00 | 0.00 | 43 | 1008.7 |
| 20260505091017 | 72 | 90 | 2.6 | 5.2 | 0.00 | 0.00 | 0.00 | 44 | 1008.8 |
| 20260505090017 | 71 | 90 | 3.5 | 10.4 | 0.00 | 0.00 | 0.00 | 43 | 1008.8 |
| 20260505085016 | 72 | 90 | 2.6 | 7.8 | 0.00 | 0.00 | 0.00 | 44 | 1008.8 |
| 20260505084016 | 71 | 90 | 0.9 | 2.6 | 0.00 | 0.00 | 0.00 | 47 | 1008.7 |
| 20260505083016 | 71 | 90 | 0.9 | 4.3 | 0.00 | 0.00 | 0.00 | 46 | 1008.7 |
| 20260505082017 | 70 | 90 | 0.9 | 3.5 | 0.00 | 0.00 | 0.00 | 46 | 1008.7 |
| 20260505081037 | 70 | 90 | 1.7 | 4.3 | 0.00 | 0.00 | 0.00 | 46 | 1008.8 |
| 20260505080016 | 69 | 90 | 2.6 | 5.2 | 0.00 | 0.00 | 0.00 | 47 | 1008.9 |
| 20260505075016 | 68 | 90 | 2.6 | 7.0 | 0.00 | 0.00 | 0.00 | 47 | 1008.8 |
| 20260505074016 | 68 | 90 | 0.9 | 2.6 | 0.00 | 0.00 | 0.00 | 50 | 1008.8 |
| 20260505073016 | 68 | 90 | 0.9 | 3.5 | 0.00 | 0.00 | 0.00 | 50 | 1009.0 |
| 20260505072036 | 67 | 0.0 | 2.6 | 0.00 | 0.00 | 0.00 | 52 | 1009.0 | |
| 20260505071037 | 66 | 90 | 0.9 | 3.5 | 0.00 | 0.00 | 0.00 | 53 | 1009.0 |
| 20260505070016 | 65 | 90 | 0.9 | 2.6 | 0.00 | 0.00 | 0.00 | 55 | 1009.1 |
| 20260505065016 | 64 | 0.0 | 2.6 | 0.00 | 0.00 | 0.00 | 55 | 1009.2 | |
| 20260505064016 | 63 | 0.0 | 0.0 | 0.00 | 0.00 | 0.00 | 56 | 1009.1 | |
| 20260505063017 | 62 | 90 | 0.9 | 3.5 | 0.00 | 0.00 | 0.00 | 55 | 1008.9 |
| 20260505062036 | 62 | 0.0 | 0.9 | 0.00 | 0.00 | 0.00 | 54 | 1009.0 | |
| 20260505061016 | 60 | 0.0 | 0.9 | 0.00 | 0.00 | 0.00 | 56 | 1009.0 | |
| 20260505060017 | 59 | 0.0 | 0.0 | 0.00 | 0.00 | 0.00 | 61 | 1008.9 | |
| 20260505055016 | 58 | 0.0 | 0.9 | 0.00 | 0.00 | 0.00 | 60 | 1008.9 | |
| 20260505054017 | 56 | 0.0 | 0.0 | 0.00 | 0.00 | 0.00 | 68 | 1008.9 | |
| 20260505053017 | 55 | 0.0 | 0.0 | 0.00 | 0.00 | 0.00 | 69 | 1008.9 | |
| 20260505052017 | 56 | 0.0 | 0.0 | 0.00 | 0.00 | 0.00 | 64 | 1008.8 | |
| 20260505051016 | 56 | 0.0 | 0.0 | 0.00 | 0.00 | 0.00 | 62 | 1008.8 | |
| 20260505041037 | 54 | 0.0 | 0.9 | 0.00 | 0.00 | 0.00 | 60 | 1008.8 | |
| 20260505040016 | 54 | 0.0 | 0.9 | 0.00 | 0.00 | 0.00 | 60 | 1008.8 | |
| 20260505035017 | 52 | 0.0 | 0.9 | 0.00 | 0.00 | 0.00 | 63 | 1008.8 | |
| 20260505034016 | 50 | 0.0 | 0.0 | 0.00 | 0.00 | 0.00 | 69 | 1008.8 | |
| 20260505033017 | 50 | 0.0 | 0.0 | 0.00 | 0.00 | 0.00 | 67 | 1008.8 | |
| 20260505032016 | 51 | 0.0 | 0.0 | 0.00 | 0.00 | 0.00 | 66 | 1009.0 | |
| 20260505031057 | 51 | 0.0 | 0.0 | 0.00 | 0.00 | 0.00 | 66 | 1009.0 | |
| 20260505030016 | 51 | 0.0 | 0.0 | 0.00 | 0.00 | 0.00 | 66 | 1009.1 | |
| 20260505025016 | 51 | 0.0 | 0.0 | 0.00 | 0.00 | 0.00 | 64 | 1009.2 | |
| 20260505024016 | 54 | 0.0 | 0.0 | 0.00 | 0.00 | 0.00 | 60 | 1009.2 | |
| 20260505023017 | 55 | 0.0 | 0.0 | 0.00 | 0.00 | 0.00 | 57 | 1009.2 | |
| 20260505022017 | 56 | 0.0 | 0.0 | 0.00 | 0.00 | 0.00 | 55 | 1009.1 | |
| 20260505021016 | 56 | 0.0 | 0.0 | 0.00 | 0.00 | 0.00 | 55 | 1009.2 | |
| 20260505020036 | 57 | 0.0 | 0.9 | 0.00 | 0.00 | 0.00 | 54 | 1009.3 | |
| 20260505015017 | 57 | 0.0 | 0.9 | 0.00 | 0.00 | 0.00 | 53 | 1009.3 | |
| 20260505014017 | 58 | 0.0 | 0.9 | 0.00 | 0.00 | 0.00 | 53 | 1009.3 | |
| 20260505013016 | 58 | 0.0 | 0.9 | 0.00 | 0.00 | 0.00 | 52 | 1009.4 | |
| 20260505012016 | 59 | 90 | 0.9 | 1.7 | 0.00 | 0.00 | 0.00 | 51 | 1009.5 |
| 20260505011016 | 60 | 0.0 | 0.9 | 0.00 | 0.00 | 0.00 | 49 | 1009.6 | |
| 20260505010016 | 60 | 0.0 | 0.9 | 0.00 | 0.00 | 0.00 | 49 | 1009.7 | |
| 20260505005016 | 60 | 90 | 0.9 | 2.6 | 0.00 | 0.00 | 0.00 | 49 | 1009.7 |
| 20260505004017 | 60 | 0.0 | 0.9 | 0.00 | 0.00 | 0.00 | 50 | 1009.7 | |
| 20260505003016 | 60 | 0.0 | 0.9 | 0.00 | 0.00 | 0.00 | 52 | 1009.8 | |
| 20260505002017 | 60 | 0.0 | 0.9 | 0.00 | 0.00 | 0.00 | 51 | 1009.9 | |
| 20260505001017 | 61 | 0.0 | 0.9 | 0.00 | 0.00 | 0.00 | 49 | 1009.8 | |
| 20260505000016 | 61 | 0.0 | 0.9 | 0.00 | 0.00 | 0.00 | 50 | 1010.0 | |
| 20260504235016 | 61 | 0.0 | 1.7 | 0.00 | 0.00 | 0.00 | 49 | 1010.2 | |
| 20260504234016 | 61 | 90 | 0.9 | 2.6 | 0.00 | 0.00 | 0.00 | 49 | 1010.3 |
| 20260504233017 | 62 | 0.0 | 1.7 | 0.00 | 0.00 | 0.00 | 49 | 1010.5 | |
| 20260504232036 | 62 | 0.0 | 0.0 | 0.00 | 0.00 | 0.00 | 48 | 1010.5 | |
| 20260504231016 | 63 | 0.0 | 0.0 | 0.00 | 0.00 | 0.00 | 47 | 1010.6 | |
| 20260504230037 | 63 | 0.0 | 0.0 | 0.00 | 0.00 | 0.00 | 46 | 1010.6 | |
| 20260504225016 | 63 | 90 | 0.9 | 2.6 | 0.00 | 0.00 | 0.00 | 46 | 1010.7 |
| 20260504224017 | 64 | 90 | 1.7 | 3.5 | 0.00 | 0.00 | 0.00 | 45 | 1010.8 |
| 20260504223016 | 64 | 90 | 1.7 | 2.6 | 0.00 | 0.00 | 0.00 | 44 | 1010.8 |
| 20260504222017 | 64 | 90 | 1.7 | 4.3 | 0.00 | 0.00 | 0.00 | 44 | 1011.0 |
| 20260504221017 | 65 | 90 | 1.7 | 4.3 | 0.00 | 0.00 | 0.00 | 43 | 1011.0 |
| 20260504220016 | 65 | 90 | 1.7 | 4.3 | 0.00 | 0.00 | 0.00 | 43 | 1011.0 |
| 20260504215017 | 66 | 90 | 2.6 | 5.2 | 0.00 | 0.00 | 0.00 | 41 | 1011.0 |
| 20260504214016 | 66 | 90 | 1.7 | 5.2 | 0.00 | 0.00 | 0.00 | 41 | 1011.1 |
| 20260504213017 | 66 | 90 | 1.7 | 3.5 | 0.00 | 0.00 | 0.00 | 40 | 1011.2 |
| 20260504212017 | 66 | 90 | 1.7 | 3.5 | 0.00 | 0.00 | 0.00 | 40 | 1011.2 |
| 20260504211016 | 67 | 90 | 1.7 | 4.3 | 0.00 | 0.00 | 0.00 | 40 | 1011.2 |
| 20260504210036 | 67 | 90 | 1.7 | 5.2 | 0.00 | 0.00 | 0.00 | 39 | 1011.2 |
| 20260504205016 | 66 | 90 | 1.7 | 3.5 | 0.00 | 0.00 | 0.00 | 40 | 1011.3 |
| 20260504204037 | 66 | 90 | 0.9 | 3.5 | 0.00 | 0.00 | 0.00 | 40 | 1011.4 |
| 20260504203016 | 66 | 90 | 1.7 | 3.5 | 0.00 | 0.00 | 0.00 | 41 | 1011.3 |
| 20260504202016 | 67 | 113 | 0.9 | 6.1 | 0.00 | 0.00 | 0.00 | 40 | 1011.3 |
| 20260504201016 | 67 | 90 | 1.7 | 5.2 | 0.00 | 0.00 | 0.00 | 41 | 1011.4 |
| 20260504200037 | 66 | 90 | 0.9 | 4.3 | 0.00 | 0.00 | 0.00 | 41 | 1011.5 |
| 20260504195016 | 66 | 90 | 0.9 | 2.6 | 0.00 | 0.00 | 0.00 | 41 | 1011.4 |
| 20260504194017 | 67 | 90 | 1.7 | 3.5 | 0.00 | 0.00 | 0.00 | 41 | 1011.4 |
| 20260504193017 | 67 | 90 | 1.7 | 2.6 | 0.00 | 0.00 | 0.00 | 41 | 1011.5 |